FW8073 Weather Reports


time (UTC)temp
F
wind
direction
speed
knots
gust
knots
rain 1hr
in
rain 24hr
in
rain mn
in
humidity
%
barometer
mb
20260503211556 57 248 14.8 19.1 0.00 0.00 0.00 64 1010.6
20260503211051 57 233 20.9 26.9 0.00 0.00 0.00 62 1010.6
20260503210549 58 305 15.6 20.9 0.00 0.00 0.00 59 1010.7
20260503210044 58 243 13.0 22.6 0.00 0.00 0.00 57 1010.3
20260503205541 60 224 15.6 23.5 0.00 0.00 0.00 54 1010.4
20260503205038 59 262 13.0 19.1 0.00 0.00 0.00 56 1010.6
20260503204534 59 255 16.5 28.7 0.00 0.00 0.00 55 1010.4
20260503204031 60 245 17.4 20.9 0.00 0.00 0.00 54 1010.6
20260503203529 60 235 7.0 20.9 0.00 0.00 0.00 54 1010.4
20260503203026 60 248 14.8 17.4 0.00 0.00 0.00 54 1010.6
20260503202524 60 251 6.1 7.8 0.00 0.00 0.00 51 1010.6
20260503202021 61 198 11.3 17.4 0.00 0.00 0.00 53 1010.7
20260503201520 61 265 12.2 20.9 0.00 0.00 0.00 51 1010.8
20260503201016 61 228 9.6 13.9 0.00 0.00 0.00 52 1010.6
20260503200512 60 224 11.3 20.9 0.00 0.00 0.00 52 1010.8
20260503200009 60 258 16.5 25.2 0.00 0.00 0.00 52 1010.9
20260503195507 60 253 13.0 15.6 0.00 0.00 0.00 54 1010.9
20260503195003 60 230 7.8 17.4 0.00 0.00 0.00 55 1011.0
20260503194501 60 250 9.6 22.6 0.00 0.00 0.00 51 1011.1
20260503193955 62 215 8.7 17.4 0.00 0.00 0.00 51 1011.1
20260503193451 60 242 13.0 19.1 0.00 0.00 0.00 50 1011.3
20260503192947 61 234 11.3 22.6 0.00 0.00 0.00 53 1011.4
20260503192443 60 269 19.1 25.2 0.00 0.00 0.00 49 1011.5
20260503191939 61 260 22.6 28.7 0.00 0.00 0.00 48 1011.3
20260503191437 61 241 19.1 23.5 0.00 0.00 0.00 50 1011.5
20260503190932 61 217 13.9 17.4 0.00 0.00 0.00 49 1011.7
20260503190431 60 282 10.4 25.2 0.00 0.00 0.00 51 1011.5
20260503185927 61 240 14.8 17.4 0.00 0.00 0.00 52 1011.5
20260503185424 61 275 18.2 22.6 0.00 0.00 0.00 50 1011.5
20260503184923 61 221 7.8 26.9 0.00 0.00 0.00 52 1011.7
20260503184420 61 203 13.0 22.6 0.00 0.00 0.00 51 1011.5
20260503183916 60 200 13.0 22.6 0.00 0.00 0.00 49 1011.6
20260503183413 60 249 17.4 23.5 0.00 0.00 0.00 49 1011.7
20260503182910 60 287 10.4 20.9 0.00 0.00 0.00 48 1012.0
20260503182409 60 206 7.8 13.9 0.00 0.00 0.00 51 1011.9
20260503181905 59 210 11.3 25.2 0.00 0.00 0.00 52 1011.9
20260503181403 60 230 9.6 17.4 0.00 0.00 0.00 50 1012.0
20260503180859 59 279 17.4 25.2 0.00 0.00 0.00 47 1012.2
20260503180357 59 278 16.5 26.9 0.00 0.00 0.00 49 1012.4
20260503175853 60 251 9.6 20.9 0.00 0.00 0.00 52 1012.3
20260503175351 59 264 12.2 17.4 0.00 0.00 0.00 51 1012.5
20260503174846 60 254 13.0 20.9 0.00 0.00 0.00 50 1012.6
20260503174345 60 238 18.2 30.4 0.00 0.00 0.00 47 1012.4
20260503173845 60 258 14.8 22.6 0.00 0.00 0.00 49 1012.6
20260503173342 60 225 10.4 22.6 0.00 0.00 0.00 47 1012.8
20260503172838 59 258 11.3 22.6 0.00 0.00 0.00 52 1012.7
20260503172336 58 238 17.4 22.6 0.00 0.00 0.00 50 1012.9
20260503171832 58 240 21.7 28.7 0.00 0.00 0.00 48 1012.9
20260503171329 60 271 20.0 25.2 0.00 0.00 0.00 49 1013.0
20260503170827 59 239 13.9 17.4 0.00 0.00 0.00 54 1013.0
20260503170323 58 262 15.6 22.6 0.00 0.00 0.00 52 1012.9
20260503150715 54 258 7.8 19.1 0.00 0.00 0.00 56 1014.2
20260503150211 54 246 10.4 19.1 0.00 0.00 0.00 59 1014.4
20260503140136 51 270 8.7 13.9 0.00 0.00 0.00 63 1014.5
20260503131105 49 279 17.4 19.1 0.00 0.00 0.00 64 1014.6
20260503130603 49 281 11.3 13.9 0.00 0.00 0.00 64 1014.5
20260503110453 37 228 0.9 1.7 0.00 0.00 0.00 82 1014.3
20260503090338 37 217 1.7 1.7 0.00 0.00 0.00 77 1014.8
20260503081306 35 219 1.7 1.7 0.00 0.00 0.00 82 1015.1
20260503080802 35 221 0.0 0.0 0.00 0.00 0.00 84 1015.2
20260503080259 35 221 0.0 0.0 0.00 0.00 0.00 83 1015.0
20260503072736 36 225 0.0 1.7 0.00 0.00 0.00 85 1015.1
20260503072232 36 223 1.7 1.7 0.00 0.00 0.00 85 1015.1
20260503071729 36 225 0.0 1.7 0.00 0.00 0.00 84 1015.1
20260503071226 36 228 0.9 1.7 0.00 0.00 0.00 86 1015.3
20260503070722 36 229 0.0 0.0 0.00 0.00 0.00 88 1015.4
20260503070221 36 229 0.0 0.0 0.00 0.00 0.00 89 1015.2
20260503060145 35 265 0.0 0.0 0.00 0.00 0.00 87 1015.6
20260503054632 35 265 0.0 0.0 0.00 0.00 0.00 89 1015.8
20260503054129 35 265 0.0 0.0 0.00 0.00 0.00 90 1015.9
20260503053627 36 265 0.0 0.0 0.00 0.00 0.00 90 1015.8
20260503053126 35 265 0.0 0.0 0.00 0.00 0.00 89 1015.9
20260503052622 35 266 0.0 0.0 0.00 0.00 0.00 89 1015.9
20260503052118 35 266 0.0 0.0 0.00 0.00 0.00 88 1015.8
20260503051614 36 266 0.0 0.0 0.00 0.00 0.00 89 1016.1
20260503051112 36 266 0.0 0.0 0.00 0.00 0.00 89 1016.0
20260503050608 36 266 0.0 0.0 0.00 0.00 0.00 89 1016.0
20260503050105 36 266 0.0 0.0 0.00 0.00 0.00 89 1016.2
20260503045602 36 266 0.0 0.0 0.00 0.00 0.00 88 1016.2
20260503045059 36 266 0.0 0.0 0.00 0.00 0.00 88 1016.0
20260503044555 36 266 0.0 0.0 0.00 0.00 0.00 87 1016.2
20260503044053 36 266 0.0 0.0 0.00 0.00 0.00 86 1016.3
20260503043549 37 266 0.0 0.0 0.00 0.00 0.00 86 1016.1
20260503043046 37 266 0.0 0.0 0.00 0.00 0.00 85 1016.3
20260503042543 37 266 0.0 0.0 0.00 0.00 0.00 84 1015.9
20260503042039 37 266 0.0 0.0 0.00 0.00 0.00 83 1016.2
20260503041536 38 266 0.0 0.0 0.00 0.00 0.00 81 1016.0
20260503041034 37 266 0.0 0.0 0.00 0.00 0.00 76 1016.4
20260503040531 38 266 0.0 0.0 0.00 0.00 0.00 70 1016.3
20260503040028 39 266 0.0 0.0 0.00 0.00 0.00 70 1016.3
20260503035525 39 266 0.0 1.7 0.00 0.00 0.00 68 1016.0
20260503035022 39 266 1.7 1.7 0.00 0.00 0.00 69 1016.3
20260503034520 38 266 1.7 1.7 0.00 0.00 0.00 74 1016.2
20260503034016 38 265 0.0 1.7 0.00 0.00 0.00 77 1016.3
20260503033514 38 265 0.0 0.0 0.00 0.00 0.00 75 1016.3
20260503033012 38 265 0.0 0.0 0.00 0.00 0.00 75 1016.4
20260503032510 38 265 0.0 0.0 0.00 0.00 0.00 75 1016.3
20260503032008 39 266 0.0 3.5 0.00 0.00 0.00 74 1016.2
20260503031505 39 265 0.0 0.0 0.00 0.00 0.00 75 1016.2
20260503031002 39 265 0.0 1.7 0.00 0.00 0.00 73 1016.3
20260503030458 39 265 0.0 0.0 0.00 0.00 0.00 74 1016.1
20260503025955 39 265 1.7 1.7 0.00 0.00 0.00 76 1016.4
20260503025452 39 265 0.0 0.0 0.00 0.00 0.00 74 1016.4
20260503024949 39 265 0.0 0.0 0.00 0.00 0.00 73 1016.5
20260503024445 39 265 0.0 0.0 0.00 0.00 0.00 72 1016.5
20260503023943 39 265 0.0 0.0 0.00 0.00 0.00 73 1016.3
20260503023440 39 265 0.0 0.0 0.00 0.00 0.00 73 1016.5
20260503022937 40 265 0.0 1.7 0.00 0.00 0.00 72 1016.5
20260503022432 40 265 0.0 1.7 0.00 0.00 0.00 73 1016.3
20260503021928 41 265 0.0 1.7 0.00 0.00 0.00 69 1016.4
20260503021424 40 265 1.7 1.7 0.00 0.00 0.00 67 1016.4
20260503020922 40 264 0.0 1.7 0.00 0.00 0.00 69 1016.3
20260503020419 41 264 0.0 1.7 0.00 0.00 0.00 70 1016.5
20260503015915 41 264 0.9 3.5 0.00 0.00 0.00 70 1016.3
20260503015413 41 263 0.0 0.0 0.00 0.00 0.00 69 1016.3
20260503014908 41 263 0.0 0.0 0.00 0.00 0.00 70 1016.3
20260503014406 42 263 0.0 0.0 0.00 0.00 0.00 69 1016.2
20260503013904 42 263 0.0 0.0 0.00 0.00 0.00 65 1016.2
20260503013400 42 263 0.0 1.7 0.00 0.00 0.00 61 1016.0
20260503012857 42 261 0.0 0.0 0.00 0.00 0.00 59 1016.0
20260503012355 43 262 0.0 0.0 0.00 0.00 0.00 58 1016.3
20260503011852 43 260 0.0 3.5 0.00 0.00 0.00 57 1016.2
20260503011349 43 259 0.0 1.7 0.00 0.00 0.00 57 1016.2
20260503010845 44 258 0.0 0.0 0.00 0.00 0.00 55 1016.2
20260503010342 44 260 0.0 1.7 0.00 0.00 0.00 56 1016.2
20260503005839 44 257 0.0 0.0 0.00 0.00 0.00 55 1016.0
20260503005337 45 260 0.0 0.0 0.00 0.00 0.00 53 1016.2
20260503004832 45 260 0.0 3.5 0.00 0.00 0.00 53 1016.1
20260503004330 45 259 0.9 4.3 0.00 0.00 0.00 51 1016.0
20260503003828 46 271 2.6 4.3 0.00 0.00 0.00 52 1016.0
20260503003324 46 246 0.9 1.7 0.00 0.00 0.00 51 1016.1
20260503002821 46 286 2.6 3.5 0.00 0.00 0.00 51 1015.9
20260503002318 46 287 2.6 4.3 0.00 0.00 0.00 51 1015.9
20260503001815 47 262 2.6 6.1 0.00 0.00 0.00 51 1015.9
20260503001311 47 264 1.7 3.5 0.00 0.00 0.00 51 1015.8
20260503000809 47 302 3.5 6.1 0.00 0.00 0.00 51 1015.7
20260503000306 47 315 1.7 4.3 0.00 0.00 0.00 52 1015.9
20260502235803 47 243 0.0 4.3 0.00 0.00 0.00 50 1015.7
20260502235300 48 294 0.9 7.8 0.00 0.00 0.00 50 1015.8
20260502234757 48 281 3.5 4.3 0.00 0.00 0.00 50 1015.8
20260502234254 48 266 3.5 4.3 0.00 0.00 0.00 49 1015.9
20260502233750 48 270 1.7 11.3 0.00 0.00 0.00 49 1015.6
20260502233247 48 266 5.2 7.8 0.00 0.00 0.00 49 1015.6
20260502232743 48 298 3.5 4.3 0.00 0.00 0.00 49 1015.7
20260502232240 49 335 1.7 4.3 0.00 0.00 0.00 50 1015.9
20260502231736 50 263 9.6 13.0 0.00 0.00 0.00 46 1015.7
20260502231234 50 304 3.5 4.3 0.00 0.00 0.00 48 1015.8
20260502230733 50 237 1.7 3.5 0.00 0.00 0.00 49 1015.8
20260502230231 49 265 1.7 3.5 0.00 0.00 0.00 51 1015.8
20260502225727 49 259 1.7 11.3 0.00 0.00 0.00 51 1015.8
20260502225224 50 251 2.6 4.3 0.00 0.00 0.00 51 1015.7
20260502224720 50 359 4.3 9.6 0.00 0.00 0.00 51 1016.0
20260502224217 51 324 1.7 4.3 0.00 0.00 0.00 47 1015.8
20260502223714 51 317 0.0 1.7 0.00 0.00 0.00 49 1015.9
20260502223212 50 343 1.7 7.8 0.00 0.00 0.00 51 1015.8
20260502222710 50 241 7.0 9.6 0.00 0.00 0.00 48 1015.8
20260502222206 51 356 5.2 9.6 0.00 0.00 0.00 47 1016.0
20260502221702 50 296 1.7 3.5 0.00 0.00 0.00 48 1016.0
20260502221159 50 323 2.6 6.1 0.00 0.00 0.00 48 1016.2
20260502220655 49 339 4.3 6.1 0.00 0.00 0.00 50 1015.9
20260502220152 50 0 4.3 9.6 0.00 0.00 0.00 55 1015.9
20260502215649 51 351 4.3 6.1 0.00 0.00 0.00 51 1015.9
20260502215145 50 284 1.7 3.5 0.00 0.00 0.00 51 1015.9
20260502214642 49 218 0.0 1.7 0.00 0.00 0.00 54 1016.1
20260502214134 49 263 3.5 4.3 0.00 0.00 0.00 52 1016.2
20260502213631 50 261 0.0 1.7 0.00 0.00 0.00 51 1016.2
20260502213128 49 347 1.7 6.1 0.00 0.00 0.00 59 1015.9
20260502212627 48 328 4.3 7.8 0.00 0.00 0.00 57 1016.0
20260502212125 49 338 0.9 4.3 0.00 0.00 0.00 57 1015.9